Погода в Котласе

Поиск расширенной информации на нашем сайте:

Полезная информация:

Новости сайта



02.01.2020
Опубликован Долгосрочный прогноз погоды по городам России и ближнего зарубежья на январь 2020 года.
Карты: Прогноз на январь и февраль 2020 года, Сравнение прогнозируемой аномалии приземной температуры воздуха на январь 2020 года по разным моделям.




Погода в Котласе - сегодня

Время (UTC), дата Ветер
(°,м/с) 
Видим.   Явления Облачность Т
(°С)
Тd
(°С)
f(%) Тe
(°С)
Pmin
(гПа)
dP
(гПа)
Po
(мм)
O2
(г/м3)
Тmin Tmax R s Состояние
почвы
00 16.01.22 320 (СЗ) 10 км  в посл. час ливневой снег  10/8 630 м кучево-дожд., средняя 
[Cb cap|Ac und]
-6.7 -8.3 88 -9  990.8  2.1  738  306           
03 16.01.22 320 (СЗ) 10 км  {ливн. осадки}  10/8 540 м средняя 
[St|Ac und]
-6.2 -7.7 89 -10  992.9  2.1  739  306  -11.8    0.8  49  равномерный
сухой снег
100% 
06 16.01.22 300 (СЗ) 3{11}  20000 м  {ливн. осадки}  9/8 840 м средняя 
[Sc|Ac trans]
-6.6 -8.6 86 -9  994.8  1.9  741  307           
09 16.01.22 300 (СЗ) 3{10}  10 км  слаб. ливневой снег  9/8 900 м кучево-дожд., средняя 
[Cb cap|Ac trans]
-5.8 -8.8 79 -8  995.3  0.5  741  306           
12 16.01.22 280 (З) 10 км  слаб. ливневой снег  9/8 800 м кучево-дожд., средняя 
[Cb cap|Ac trans]
-6.2 -9.3 79 -10  995.3  741  307           
15 16.01.22 260 (З) 10 км  {ливн. осадки}  9/8 540 м кучево-дожд., средняя 
[Cb cap|Ac trans]
-7.4 -9.5 85 -7  995.2  -0.1  741  308    -5.6  0.0     
18 16.01.22 180 (Ю) 4000 м  слаб. ливневой снег  10/4 1000 м кучево-дожд., средняя 
[Cb cap|Ac und]
-8 -10.2 84 -10  993.1  -2.3  739  308           
21 16.01.22 190 (Ю) 4000 м  слаб. ливневой снег  10/4 1000 м кучево-дожд., средняя 
[Cb cap|Ac und]
-8 -10.2 84 -12  990.5  -2.6  737  307           
00 17.01.22 150 (ЮВ) 4000 м  слаб. снег{ливн. осадки}  10/10 540 м 
[Ns]
-7.8 -9.6 87 -11  987.3  -3.2  735  306           
03 17.01.22 140 (ЮВ) 4000 м  слаб. снег  10/10 <0100 м 
[Ns]
-7 -9.1 85 -11  983.7  -3.4  733  304  -8    51  равномерный
сухой снег
100% 
06 17.01.22 160 (Ю) 20000 м  {снег}  10/10 400 м 
[Sc]
-6 -7.5 89 -9  983.9  0.2  733  303           
09 17.01.22 170 (Ю) 10 км  слаб. ливневой снег  10/8 570 м кучево-дожд., средняя 
[Cb cap|Ac und]
-4.8 -6.5 88 -9  982.5  -1.4  732  301           
12 17.01.22 140 (ЮВ) 2000 м  ливневой снег  10/10 150 м кучево-дожд. 
[Cb cap]
-4.4 -5.7 91 -8  983.1  0.6  732  300           
15 17.01.22 160 (Ю) 4000 м  слаб. ливневой снег  10/5 600 м кучево-дожд., средняя 
[Cb cap|Ac und]
-4.4 -5.7 91 -8  984.3  1.2  733  301    -4     
18 17.01.22 130 (ЮВ) 2000 м  ливневой снег  10/10 240 м кучево-дожд. 
[Cb cap]
+5 -6.3 44 +4  984  -0.3  733  291           
21 17.01.22 150 (ЮВ) 2000 м  ливневой снег  10/8 240 м кучево-дожд., средняя 
[Cb cap|Ac und]
-5.4 -6.1 95 -8  985.2  1.2  734  302           
00 18.01.22 180 (Ю) 10 км  {ливн. осадки}  8/0 средняя, верхняя 
[Ac trans|Ci fib]
-6.4 -7.6 91 -9  986.8  1.6  735  304           
03 18.01.22 140 (ЮВ) 10 км  слаб. ливневой снег  9/6 450 м кучево-дожд., средняя 
[Cb cap|Ac trans]
-5.8 -6.9 92 -8  989.3  2.5  737  304  -6.9    53  равномерный
сухой снег
100% 
06 18.01.22 160 (Ю) 20000 м  {ливн. осадки}  10/8 1020 м средняя 
[Sc|Ac und]
-5.4 -6.4 93 -7  991.4  2.1  738  304           
09 18.01.22 250 (З) 20000 м    10/8 960 м средняя 
[Sc|Ac und]
-4.7 -6 91 -6  993.6  2.2  740  304           
12 18.01.22 180 (Ю) 4000 м  слаб. ливневой снег  10/6 960 м кучево-дожд., средняя 
[Cb cap|Ac und]
-5.4 -7.2 87 -7  996.2  2.6  742  306           
15 18.01.22 150 (ЮВ) 4000 м  слаб. ливневой снег  10/5 1000 м кучево-дожд., средняя 
[Cb cap|Ac und]
-6.9 -8.5 88 -7  998.6  2.3  744  308    -4.7  0.2     
18 18.01.22 140 (ЮВ) 4000 м  слаб. ливневой снег  10/6 750 м кучево-дожд., средняя, верхняя 
[Cb cap|Ac trans|Ci fib]
-11 -11.6 95 -11  1001.2  2.4  745  314           
21 18.01.22 110 (В) 10 км  слаб. ливневой снег  10/8 930 м кучево-дожд., средняя 
[Cb cap|Ac und]
-12 -12.6 95 -12  1003.6  2.4  747  316           
00 19.01.22 300 (СЗ) 10 км  слаб. ливневой снег  10/9 500 м кучево-дожд., средняя 
[Cb cap|Ac und]
-8 -9 93 -8  1006.2  2.6  749  312           
Время (UTC), дата Ветер
(°,м/с) 
Видим.   Явления Облачность Т
(°С)
Тd
(°С)
f(%) Тe
(°С)
Pmin
(гПа)
dP
(гПа)
Po
(мм)
O2
(г/м3)
Тmin Tmax R s Состояние
почвы

Для получения пояснительной информации подведите курсор к названию столбца.

ПОГОДА в Котласе - архив

Всё, что Вы хотите узнать о погоде в Котласе - удобно и подробно!

Выберите нужную дату (начиная с 1 января 2019* года) и нажмите кнопку "Найти".
Будут отображены архивные сводки погоды по пункту Котлас, начиная с указанной даты.


Отображать данные в формате CSV (для использования в таблицах Excel)


Внимание! Наш архив погоды предназначен исключительно для личного некоммерческого использования в познавательных целях. Если Вам необходимы официальные справки о состоянии погоды (для производственных, юридических, коммерческих и т.п. целей), обращайтесь в органы Росгидромета.

*Примечание: данная дата относится к архиву по метеостанциям СССР (Россия, СНГ, Балтия).
Архив по метеостанциям Зарубежной Европы и Азии (кроме Китая) хранится 10 дней, по другим регионам земного шара (Китай, Африка, Америка, Австралия, Океания) - 1 день.

Котлас - район местоположения метеостанции


Название, широта, долгота, высота метеостанции:
Котлас 61.2°ш. 46.7°д. 56 м над ур. моря [Российская Федерация]

Дополнительная информация

В oтличие oт бoльшинства пoгoдных сайтoв мы публикуем пoдрoбную метеoинфoрмацию в детальнoм прoфессиoнальнoм фoрмате.

Характеристики температуры и влажнoсти вoздуха измеряются на высoте 2 м в тени вдали oт зданий и деревьев.
Скoрoсть ветра измеряется на высoте 10 м (на урoвне рoста челoвека скoрoсть ветра ниже в 1.5-2 раза). Если метеoстанция нахoдится в гoрoде или в лесу, тo скoрoсть ветра занижена на 2-4 м/с пo сравнению с oткрытым местoм. Скoрoсть ветра над акватoриями крупных рек и oзёр, а также на вершинах хoлмoв на 2-5 м/с выше, чем в oбычных услoвиях.
Атмoсфернoе давление в разных тoчках местнoсти мoжет значительнo oтличаться oт давления на метеoстанции, в зависимoсти oт услoвий рельефа (при пoдъёме на 10 м давление пoнижается примернo на 1 мм рт.ст.).